Theta_e
323 314 312 312 311 311 310 311 311 312 311 310 311 310 312 314 315 319 324 330 335 337 338 338 338 337 336 337 337 337 335 329 330 333 331 332 332 332 331 331 330 327 323 321 317 310 305 302 302 305 309 309 309 311 311 308 309 312 311 310 312 313 309 308 312 312 311 312 311 310 308 306 305 303 303 303 303 304 304 304 305 305 305 304 304
326 314 312 311 311 312 311 311 311 311 310 309 310 311 314 315 317 324 331 333 337 338 338 338 337 337 336 337 337 338 336 330 328 332 332 332 332 332 331 331 329 325 321 320 315 307 302 302 304 310 311 308 311 315 312 310 312 312 309 311 313 310 306 309 312 312 312 310 306 304 304 303 303 303 304 304 304 304 303 303 303 303 302 302 302
328 317 313 311 311 311 312 313 312 311 311 311 310 310 314 318 321 328 334 335 338 338 338 338 335 336 336 337 338 338 337 333 330 331 332 332 332 332 331 330 327 323 321 318 312 304 302 302 305 313 314 311 314 317 315 312 312 312 313 314 312 307 306 310 311 309 307 305 304 304 304 304 304 306 307 305 305 304 304 304 303 301 302 303 302
326 320 315 312 311 311 311 313 314 314 312 313 311 309 315 322 325 328 332 336 339 339 338 337 335 335 335 337 339 338 338 335 332 332 332 332 332 332 330 329 327 322 320 316 308 302 302 303 306 311 313 314 315 316 318 315 312 313 314 312 307 305 307 310 309 307 306 307 308 307 307 307 307 309 308 307 307 306 306 306 305 305 303 303 304
325 321 319 315 312 312 312 313 317 317 313 312 311 311 319 327 329 329 332 336 339 339 338 337 336 335 336 337 338 338 338 336 334 333 332 331 331 331 330 329 325 320 319 313 304 301 301 303 306 308 311 316 316 316 318 317 313 314 311 306 305 307 308 308 308 308 307 306 306 308 309 308 308 308 306 306 306 306 306 306 307 308 305 302 302
327 323 322 318 314 313 315 320 320 315 311 312 314 318 326 331 333 334 335 337 340 339 336 337 336 336 337 337 336 335 336 337 336 334 333 332 331 331 329 328 325 321 319 313 304 302 302 301 304 306 310 316 317 316 318 318 315 314 310 305 306 308 308 306 309 309 305 302 305 308 307 305 306 306 304 304 303 305 307 308 308 308 307 304 302
329 326 323 320 320 319 323 329 322 313 315 317 320 327 330 333 335 337 337 337 339 338 337 338 337 337 337 337 335 334 335 336 335 334 333 332 331 331 329 327 324 320 320 314 305 302 302 301 301 302 306 313 317 316 317 318 316 315 312 308 306 305 306 307 308 307 303 302 306 307 305 303 304 303 303 304 303 304 304 304 305 304 306 306 303
330 328 324 322 327 329 330 331 322 318 324 322 326 332 332 334 335 336 337 337 337 337 337 338 336 335 334 335 336 335 335 335 334 333 332 332 331 330 329 326 321 319 319 314 307 304 303 301 301 301 301 308 315 316 315 317 317 315 314 311 306 303 305 305 303 304 302 301 303 303 303 302 302 302 303 303 303 305 303 301 301 301 304 304 302
330 330 325 324 330 333 332 330 324 324 327 325 330 334 333 335 335 334 336 336 337 337 338 336 334 332 332 334 335 335 335 334 334 333 332 332 330 329 328 324 318 319 320 314 309 308 304 301 300 301 300 303 313 316 316 317 316 315 314 314 310 304 303 303 300 303 302 300 299 299 300 300 302 303 303 302 302 304 304 301 300 300 301 300 299
332 331 326 325 330 334 333 329 326 326 328 327 330 332 333 335 334 334 335 335 336 336 336 334 333 333 333 334 335 335 335 334 332 332 332 331 329 329 327 322 320 321 320 314 310 308 305 303 301 300 301 303 310 315 316 316 316 316 315 315 311 304 302 301 302 303 301 299 299 298 298 299 299 301 302 301 300 302 301 300 299 298 298 297 298
335 333 327 324 329 334 332 328 326 327 327 328 329 330 332 334 334 333 334 335 336 336 334 332 331 333 333 334 334 334 334 333 332 331 332 330 329 329 325 322 323 322 321 318 311 306 305 305 304 300 300 302 306 312 314 315 316 317 316 314 311 306 304 302 301 301 300 299 298 297 297 297 297 298 299 298 298 299 298 297 298 297 297 297 297
338 337 332 327 329 332 331 327 326 326 327 327 329 330 330 332 333 334 334 335 335 335 334 332 331 331 331 333 333 333 333 333 332 331 331 330 329 328 323 323 324 321 320 319 313 307 303 302 303 301 301 302 303 306 309 313 316 316 316 314 312 310 308 304 301 302 301 299 298 297 297 297 297 296 297 297 296 297 296 297 297 296 297 297 297
339 338 335 333 332 331 330 325 325 327 326 326 327 328 329 330 332 334 335 335 335 335 334 334 332 330 331 332 332 332 332 331 331 331 331 330 329 326 321 321 323 320 320 319 314 310 303 299 302 303 303 304 305 307 309 311 314 316 315 314 313 312 311 308 303 302 301 300 298 298 297 296 297 296 296 297 296 296 296 297 297 297 297 297 297
339 337 336 336 334 333 331 326 325 327 326 327 326 328 329 329 331 334 335 335 335 335 335 334 332 330 330 331 331 331 331 330 330 330 330 329 327 324 321 321 321 319 320 318 315 311 303 299 301 302 302 303 306 310 312 311 311 313 314 314 313 311 312 310 306 303 303 302 300 297 297 296 296 297 297 297 297 297 296 297 297 297 297 297 297
339 336 336 337 335 333 330 326 328 328 327 328 329 329 328 328 332 335 335 335 335 335 335 334 333 331 330 330 330 329 329 328 328 329 330 328 325 322 323 323 319 316 319 318 316 312 303 299 300 300 300 300 302 307 310 309 308 308 310 311 311 309 310 311 308 306 305 305 304 298 296 297 296 296 297 296 297 296 296 297 297 297 297 297 297
338 336 336 337 336 335 331 327 330 330 329 330 331 329 327 329 332 334 335 335 335 335 334 334 334 332 331 331 330 329 328 326 327 327 327 325 321 320 321 321 317 315 318 317 316 311 303 299 300 299 299 299 299 304 307 307 306 305 304 305 306 307 310 311 309 308 306 307 308 302 296 296 297 296 296 296 296 296 296 296 296 296 296 296 297
338 337 336 337 337 336 334 332 332 331 330 330 331 330 328 330 332 332 333 334 335 335 333 333 333 332 331 331 330 330 329 327 326 325 324 322 318 317 318 317 315 315 317 316 315 311 303 299 300 299 299 298 298 301 305 308 309 308 305 300 299 301 305 307 308 309 307 307 310 307 300 296 297 296 296 296 296 297 297 296 296 296 296 296 296
338 338 337 338 337 337 337 335 333 331 331 331 332 331 329 329 331 332 332 332 335 335 333 332 332 332 332 331 330 330 329 328 326 324 323 320 317 316 316 315 315 315 315 315 314 311 304 299 299 299 298 298 298 300 302 305 307 307 304 299 296 297 298 300 304 307 308 305 308 309 302 296 297 296 296 296 296 296 296 296 296 296 296 296 296
338 338 339 338 337 337 337 337 336 333 330 330 332 332 328 327 329 331 331 332 334 334 333 333 332 332 332 331 331 330 330 328 327 326 323 320 319 317 315 314 314 314 314 313 312 310 305 299 299 298 298 298 297 299 299 299 300 300 299 297 296 297 296 296 297 302 305 303 306 309 303 297 297 296 296 297 296 297 296 296 296 296 296 296 296
338 339 339 339 338 338 337 337 337 334 332 330 331 331 327 326 327 329 331 332 332 333 333 332 332 332 331 331 331 330 330 328 327 327 325 322 320 316 314 313 313 313 312 312 311 310 306 300 299 299 298 298 298 299 299 298 297 297 297 297 296 296 296 296 295 297 299 299 304 308 303 297 297 296 296 297 296 297 296 296 296 296 296 296 296
339 339 339 339 339 338 337 337 337 337 334 331 332 332 328 326 327 329 331 332 331 331 331 331 331 332 331 331 331 330 329 328 327 326 325 323 320 317 315 314 313 313 312 312 311 310 307 301 299 299 298 298 299 300 300 299 298 297 297 296 296 296 295 296 296 296 297 297 301 305 302 297 297 296 296 296 296 297 296 296 296 296 296 296 296
338 339 339 339 339 338 338 337 337 337 336 334 334 334 331 328 327 329 331 331 330 329 329 329 329 331 332 331 331 331 329 328 327 326 324 323 321 319 318 316 314 313 312 312 311 309 307 302 298 299 299 300 300 299 299 299 299 297 297 296 296 296 296 296 296 296 297 296 298 300 299 296 297 296 296 296 296 296 296 296 296 296 296 296 295
337 337 337 338 338 338 338 337 337 337 337 335 335 336 335 332 329 329 331 331 330 330 329 329 329 329 331 331 330 330 329 329 328 327 325 324 323 321 319 316 315 313 312 311 310 309 307 302 300 300 301 302 303 300 298 298 298 297 296 296 296 296 295 296 296 296 297 296 296 297 296 296 297 296 296 296 296 296 296 296 296 296 296 296 296
339 337 336 336 337 337 337 337 337 337 337 336 335 336 336 335 333 331 330 330 331 330 329 329 328 327 328 331 330 329 329 329 329 327 324 324 323 321 318 316 315 314 313 311 310 309 307 304 302 302 302 302 303 301 298 297 296 296 296 296 296 295 295 295 296 296 296 296 296 296 296 296 296 296 296 296 296 296 296 296 296 296 296 296 296
339 338 337 337 337 337 337 337 337 337 337 336 335 335 336 337 337 333 331 330 330 329 328 328 328 327 328 330 330 329 329 329 329 328 325 323 323 321 319 316 316 315 313 311 311 310 308 306 305 304 303 301 300 300 301 299 296 296 297 296 296 295 295 296 296 296 296 296 296 296 296 296 296 296 296 296 296 296 296 296 296 296 296 296 295
339 338 338 339 337 336 336 335 337 337 337 336 335 335 336 336 336 334 332 331 329 330 330 329 329 329 328 329 329 329 329 329 329 327 324 324 323 322 320 317 316 315 313 312 311 310 309 307 305 304 304 301 299 300 301 299 296 296 297 296 296 296 295 296 296 296 296 296 296 296 296 296 296 296 296 296 296 296 296 296 296 296 296 296 295
339 339 339 338 336 335 335 335 336 337 337 336 336 335 335 335 335 335 335 333 332 332 331 329 330 330 328 329 330 329 329 329 329 326 325 324 323 323 322 320 317 314 313 313 311 311 310 308 305 304 303 300 298 300 300 298 296 296 296 296 296 295 295 296 296 296 296 296 296 296 297 297 297 296 296 297 297 296 297 296 296 296 296 296 295
340 340 339 338 335 335 335 335 335 335 335 335 335 335 335 334 334 335 335 334 333 332 332 331 331 330 328 329 330 330 328 328 329 328 326 325 323 323 324 323 320 317 314 314 312 311 311 308 306 305 302 299 300 300 298 297 296 295 298 299 297 295 296 296 296 296 296 296 297 297 298 297 297 297 297 297 297 297 297 296 296 296 296 296 296
340 341 339 337 335 334 334 334 333 333 333 333 334 334 334 334 334 334 334 334 332 331 331 331 331 329 330 330 330 329 328 328 328 328 325 324 324 323 324 324 323 319 317 316 314 312 311 308 308 306 302 300 301 299 297 299 296 296 300 301 298 296 296 296 296 296 296 297 297 298 298 298 297 297 297 297 297 297 297 297 296 296 296 297 296
340 340 338 336 334 334 333 332 332 333 333 333 333 333 333 334 333 332 332 333 332 330 329 329 328 328 329 329 329 329 328 327 328 327 325 324 324 324 324 323 322 321 319 318 316 313 311 309 308 307 303 302 300 297 300 301 296 297 301 301 299 296 296 296 296 296 297 297 298 298 299 298 298 298 298 297 297 297 297 297 296 296 297 297 297
340 339 337 335 334 333 332 332 333 333 333 332 332 333 333 332 331 330 331 331 331 330 329 326 325 325 326 327 328 328 327 328 328 327 326 325 324 324 324 322 321 321 320 319 317 314 311 309 309 307 304 302 300 299 302 302 296 297 301 302 299 296 295 296 296 297 297 298 298 298 298 298 298 298 298 297 297 297 297 297 296 296 297 297 297
340 339 337 335 333 332 332 334 333 332 331 330 331 332 331 330 329 329 329 328 328 328 327 324 322 324 325 325 325 325 326 327 327 327 326 326 325 324 323 322 321 321 320 319 317 314 311 310 309 307 305 301 300 301 303 302 297 296 300 301 298 296 298 298 296 297 297 298 298 298 298 298 298 298 298 297 297 297 297 297 296 296 297 297 297
340 338 336 336 335 332 332 333 331 330 330 330 330 329 328 326 326 326 327 326 325 325 325 323 322 324 324 323 322 321 322 324 325 326 326 325 324 323 322 321 321 321 319 318 317 313 311 309 308 307 305 301 300 302 303 302 298 296 300 300 297 298 303 301 298 297 297 298 298 298 298 298 298 298 298 297 297 297 297 296 296 297 297 297 297
339 337 337 337 336 333 332 332 330 329 328 328 328 326 326 325 324 325 326 326 326 325 324 322 323 323 323 321 319 318 319 322 324 324 324 323 323 322 321 321 321 319 318 317 316 313 311 309 307 307 304 301 302 304 304 303 300 299 301 301 299 301 303 303 301 298 297 298 298 298 298 298 298 298 298 298 297 297 297 296 296 297 297 297 297
337 337 337 337 336 334 333 332 331 328 326 326 327 326 325 325 324 325 326 326 326 323 319 318 319 320 319 318 318 316 317 319 319 321 321 321 322 321 321 321 320 318 317 316 315 313 311 309 307 306 303 300 303 305 304 304 302 301 303 302 301 301 301 303 303 300 297 298 298 298 298 298 298 297 298 298 298 297 297 296 297 297 297 297 297
336 336 336 336 335 334 334 332 331 328 326 327 327 327 327 326 326 327 327 327 324 320 315 313 314 315 314 313 313 311 311 311 312 314 315 317 320 320 320 320 320 319 318 316 313 312 312 310 307 307 303 300 303 305 305 305 303 302 303 302 301 301 301 302 304 302 298 297 297 297 297 297 298 298 298 298 297 297 297 297 297 297 297 297 296
336 335 335 335 335 334 333 332 330 328 328 328 328 327 327 327 327 327 326 326 323 316 312 311 311 311 310 309 309 307 307 305 306 307 308 312 318 319 319 320 320 320 318 314 312 312 312 310 308 306 304 301 303 305 304 304 303 302 303 302 301 302 302 301 303 302 299 298 298 298 298 298 298 298 298 298 297 297 297 297 297 296 297 297 296
335 335 335 335 334 333 333 332 329 328 328 328 327 327 327 327 327 326 325 326 323 316 312 310 310 310 309 307 306 305 304 302 303 303 303 308 315 318 319 319 319 319 316 313 312 311 311 310 307 305 304 302 303 305 303 302 303 304 304 303 302 303 303 302 302 301 300 300 300 300 300 300 299 299 299 297 297 297 297 297 297 296 296 296 296
335 335 335 334 333 333 333 330 328 328 328 328 327 327 327 326 326 325 324 325 323 318 314 310 309 309 307 306 304 303 302 302 302 302 302 305 311 315 318 318 318 318 315 312 312 311 310 309 306 305 304 302 302 304 303 302 304 305 304 303 303 302 303 303 303 302 302 302 301 300 300 300 300 301 300 298 297 297 297 297 297 297 297 296 296
336 335 334 333 333 333 331 329 327 328 328 327 327 326 326 325 325 325 324 323 320 316 314 312 310 308 305 303 302 301 301 301 301 302 303 305 310 314 316 317 318 317 315 312 311 311 310 308 306 305 304 302 302 304 303 302 304 305 304 304 304 303 303 304 303 303 303 303 303 302 302 301 301 302 303 301 298 297 297 297 297 297 296 296 296
336 335 333 332 332 332 330 328 327 328 327 327 327 326 326 325 324 324 323 321 318 316 316 314 311 307 303 301 302 301 301 301 301 301 303 305 308 311 313 315 317 316 313 312 312 311 310 307 305 305 305 304 303 304 302 300 303 305 305 304 305 304 303 303 303 303 303 303 303 303 303 302 301 303 304 303 300 298 297 297 297 297 297 296 296
335 334 333 332 331 331 329 327 327 327 327 327 327 326 326 325 325 324 323 321 318 318 317 313 309 305 302 301 301 301 301 301 301 301 302 304 307 309 311 313 315 315 313 312 311 310 309 307 305 305 305 305 304 303 301 299 302 305 304 303 305 305 303 304 303 302 302 302 303 304 304 301 300 302 304 303 301 299 298 297 297 297 297 296 296
335 334 332 332 331 330 328 327 327 327 327 327 326 325 325 325 325 324 322 320 319 319 315 309 306 304 302 301 301 301 301 301 300 301 301 303 306 308 310 312 313 314 313 312 311 309 307 306 305 304 304 305 304 302 301 302 304 305 304 303 304 304 303 304 304 303 302 302 302 304 304 302 300 302 304 303 301 298 297 297 297 297 297 296 296
334 333 332 331 331 330 327 327 327 327 327 326 325 324 324 324 324 324 322 321 320 318 314 308 306 304 302 301 301 301 301 300 300 301 301 302 304 306 307 308 309 310 311 310 308 306 303 304 304 303 304 306 304 301 303 304 303 303 303 303 304 304 303 304 305 305 302 301 302 304 303 302 301 302 304 304 301 298 297 298 297 297 297 297 296
333 333 332 331 331 330 328 328 327 327 326 325 324 324 323 324 324 323 322 320 317 315 311 308 307 305 303 301 300 300 301 300 300 300 300 301 302 303 304 305 305 306 306 304 302 300 300 303 304 302 303 305 304 302 303 302 301 302 303 303 304 304 304 304 305 305 303 300 302 304 303 302 301 301 303 303 302 299 297 297 298 297 297 297 296
334 333 332 331 331 329 328 328 327 327 326 324 324 324 324 324 323 322 322 319 314 311 309 308 307 306 304 302 301 301 300 300 300 300 300 301 301 302 302 302 302 303 302 299 297 297 298 301 303 303 302 303 303 303 300 297 298 301 302 303 304 304 304 304 304 304 302 300 301 303 303 302 301 301 302 302 302 301 299 298 298 298 297 297 297
334 333 332 331 330 328 327 327 327 327 326 324 324 324 324 323 323 321 320 318 314 310 309 308 306 305 304 303 303 302 301 301 300 299 300 301 302 302 301 300 300 300 299 297 297 297 297 298 301 302 301 299 300 301 297 294 298 301 303 304 304 303 304 304 303 302 302 300 300 301 304 303 301 301 301 301 302 302 301 299 298 297 298 297 296
333 332 331 331 330 328 328 327 326 327 326 324 324 324 323 323 322 320 318 316 313 311 309 308 306 305 304 303 304 304 303 302 301 300 300 302 304 304 302 300 299 298 298 297 297 297 297 297 299 300 298 296 297 298 295 296 299 302 302 303 304 303 303 303 302 302 302 301 300 301 303 303 301 301 301 301 301 301 301 301 299 298 298 297 296
332 331 331 331 329 329 329 327 326 326 325 324 324 324 323 323 322 320 316 314 312 310 309 307 306 305 303 303 306 308 307 305 302 302 302 303 305 306 303 301 300 298 297 298 297 297 297 297 297 297 297 296 296 296 296 296 298 300 301 302 302 302 303 303 304 304 303 302 301 300 301 302 302 301 301 301 301 301 301 301 300 298 298 297 296
332 331 330 330 329 329 329 327 326 325 325 325 324 323 323 323 323 321 316 313 312 310 308 307 306 305 303 302 304 307 309 306 303 303 303 303 306 307 304 303 302 300 298 297 298 297 297 297 297 297 297 297 297 297 296 296 296 297 300 303 303 302 303 304 304 304 303 302 301 300 301 302 302 301 301 301 301 301 301 301 300 299 298 297 296
332 331 330 330 330 329 329 328 326 324 324 324 324 323 323 323 323 321 317 314 312 310 308 307 306 305 304 303 302 303 305 304 302 303 303 304 306 306 303 303 303 302 299 298 297 297 297 297 297 297 297 297 297 297 296 296 296 296 299 304 305 303 303 304 304 303 302 303 302 300 300 301 301 301 301 300 300 301 301 301 301 300 299 297 295
Wind_Speed
10 12 13 14 14 14 14 14 14 14 13 13 12 11 10 10 9 9 9 8 7 7 6 5 6 7 7 7 7 7 8 6 2 4 7 7 8 6 4 5 6 8 10 12 14 15 14 13 13 12 12 12 13 12 13 14 13 11 10 11 12 11 10 12 14 14 14 14 15 16 16 16 15 15 14 13 13 13 13 13 14 14 14 14 14
9 12 13 13 14 14 13 14 14 14 13 13 13 12 11 10 10 9 8 8 7 7 7 5 5 6 6 7 8 7 7 9 4 4 8 8 7 6 5 5 6 9 11 12 14 15 15 14 13 12 11 12 12 12 13 15 14 12 13 13 13 13 12 14 15 16 16 16 17 17 16 16 16 15 14 14 14 14 14 15 15 16 17 18 18
10 13 13 13 13 13 13 13 13 13 13 13 13 12 12 11 10 9 9 8 7 7 6 6 5 6 7 8 9 7 7 11 8 4 7 9 8 6 6 6 7 10 11 13 14 14 14 13 12 11 11 12 12 12 12 14 14 13 14 15 15 14 14 16 17 17 17 17 17 17 17 18 18 18 18 18 18 18 17 17 19 20 21 21 22
10 13 13 12 12 12 13 13 12 13 14 14 14 13 13 11 9 8 9 8 7 7 7 6 6 6 8 9 9 8 6 8 9 7 7 8 8 4 5 6 7 9 11 13 14 13 13 12 11 11 11 12 12 12 11 13 14 13 13 14 14 13 14 16 17 16 17 17 18 18 19 20 20 20 21 21 20 20 20 20 20 21 23 23 23
10 12 12 13 12 12 13 13 13 13 15 15 14 13 12 10 9 8 8 7 7 7 7 7 7 8 9 9 10 10 8 6 7 8 8 7 5 3 4 5 6 9 12 14 13 13 12 10 10 10 11 12 10 11 11 10 13 13 14 15 14 15 16 17 17 17 18 18 18 19 20 20 20 20 20 21 20 21 21 21 22 21 22 25 25
9 11 11 13 13 12 13 12 13 15 15 14 13 12 11 9 9 8 8 7 7 7 7 7 8 10 10 9 11 12 10 7 8 8 8 6 4 4 5 5 6 9 12 14 13 13 11 9 8 9 10 11 10 10 11 10 12 13 14 16 16 17 18 17 17 17 18 18 18 19 19 19 19 19 19 20 20 21 21 22 22 22 22 25 26
9 10 11 12 11 12 11 10 13 14 13 13 12 11 10 10 10 8 8 7 7 8 8 8 10 10 10 10 10 9 9 9 9 8 7 6 4 4 4 5 5 6 10 13 13 12 11 9 8 8 8 10 10 10 12 10 11 13 14 15 17 17 17 17 18 18 18 18 18 19 18 19 19 19 20 20 21 22 23 22 22 23 22 23 25
10 10 11 11 10 11 10 10 12 12 11 11 12 11 11 11 10 9 8 7 8 9 9 10 13 11 12 12 10 7 9 9 8 7 7 5 4 5 4 5 5 5 9 11 12 12 11 10 9 8 8 10 11 11 11 10 10 11 12 13 16 17 15 17 17 17 18 18 19 19 19 19 19 20 22 22 23 23 23 24 24 25 24 25 27
11 11 11 11 11 11 10 10 11 10 10 12 11 11 11 10 11 10 8 8 8 9 10 12 14 14 15 13 9 8 8 8 8 7 7 6 5 5 4 4 6 7 9 11 11 12 11 9 8 9 8 10 13 11 9 9 8 10 10 10 13 16 15 17 17 16 18 20 20 21 21 21 21 22 23 24 24 24 24 25 26 26 27 28 29
12 12 12 11 11 11 10 10 11 11 10 12 12 11 11 11 11 10 9 8 10 12 13 14 15 14 13 10 9 9 9 10 9 8 8 6 5 4 3 4 6 7 8 10 10 11 11 9 9 9 9 9 13 13 10 9 8 8 8 7 11 13 16 18 17 17 19 20 21 22 23 23 23 23 22 24 25 25 24 24 26 27 29 30 31
12 12 12 11 11 11 10 11 12 12 11 12 12 11 11 11 11 10 9 8 10 13 14 16 16 13 12 10 10 9 8 11 12 12 11 7 4 4 4 3 4 4 6 9 9 9 8 7 7 8 9 8 9 12 10 9 8 8 7 8 11 13 17 18 17 18 20 21 22 23 23 24 24 24 24 25 26 26 25 25 26 27 29 30 33
12 11 11 10 11 10 11 12 13 12 12 13 12 12 12 12 11 10 10 8 9 13 14 16 16 14 13 13 13 11 8 10 13 14 12 8 6 6 4 1 2 2 4 7 7 7 6 4 5 7 9 7 6 9 9 10 11 9 7 10 13 12 15 17 17 19 20 21 22 23 23 23 24 25 25 26 26 26 26 26 26 27 29 31 33
12 11 10 10 10 10 11 13 13 13 13 12 12 12 12 12 12 11 9 9 10 13 14 15 17 16 15 16 16 16 14 12 13 14 13 10 9 7 5 3 2 3 3 5 6 6 6 4 5 6 8 7 7 9 8 8 11 10 7 8 11 11 13 16 16 17 19 20 22 22 22 22 23 24 25 25 25 26 26 26 26 27 29 31 32
13 13 11 10 11 10 11 12 12 13 13 12 12 13 13 13 12 10 9 10 10 13 15 14 14 16 17 18 18 18 17 15 14 14 13 11 10 8 4 3 4 4 2 3 4 5 5 3 4 6 7 8 7 8 7 7 10 11 9 7 7 8 10 12 13 15 17 18 20 20 20 21 22 23 23 24 24 25 26 26 27 28 29 31 32
14 13 12 10 10 10 11 12 12 12 12 12 13 13 13 13 12 11 10 10 10 12 15 13 12 14 15 16 18 17 14 14 13 12 13 12 11 9 5 6 6 5 2 2 3 4 3 2 3 5 7 8 8 8 7 8 9 8 8 7 6 8 9 10 11 14 15 16 17 18 19 20 21 21 22 23 24 25 26 26 27 28 29 30 32
15 13 12 11 10 9 10 11 11 11 12 11 12 13 13 13 13 12 11 11 11 12 15 14 15 16 15 14 15 13 10 13 14 12 12 12 11 11 9 8 8 5 3 2 2 2 2 2 2 4 6 7 9 9 8 8 7 4 5 7 8 9 9 9 10 12 13 15 14 15 17 19 20 20 21 22 24 25 26 27 27 28 29 30 31
15 13 12 11 11 10 9 10 11 11 12 12 13 13 13 14 14 14 13 12 11 12 15 16 18 18 16 15 14 11 12 17 16 11 9 9 10 12 11 10 9 6 4 3 2 1 1 1 2 4 7 8 9 10 10 8 6 4 3 5 8 9 8 9 10 11 12 13 13 13 15 18 19 19 20 22 24 26 27 27 27 28 29 29 31
16 13 13 12 12 11 10 10 10 11 12 12 13 14 14 14 14 15 14 12 12 13 15 16 20 20 17 18 18 16 19 20 18 12 9 7 9 13 14 11 10 7 5 4 2 1 0 1 3 5 7 8 9 9 9 7 6 5 5 5 7 8 8 9 10 11 11 11 12 11 13 17 18 19 20 22 25 26 27 28 28 28 29 30 31
16 14 14 13 12 12 11 10 10 11 11 12 13 15 15 15 14 15 14 13 13 15 15 16 20 21 19 20 21 21 21 18 16 14 12 10 9 11 13 12 10 8 6 5 4 2 1 2 3 6 8 9 9 9 8 7 7 7 7 8 7 8 9 9 10 11 11 10 11 11 12 16 17 18 21 23 25 26 27 28 28 29 29 30 31
16 15 14 13 13 12 11 11 10 10 11 12 14 16 16 16 15 15 15 15 14 16 16 17 20 21 21 22 23 23 20 16 15 15 13 13 12 10 12 13 11 10 9 7 6 4 3 2 4 6 8 9 9 9 8 7 7 7 7 7 7 8 9 9 9 11 11 11 11 11 12 15 17 18 20 23 25 26 27 28 28 29 29 30 31
16 15 14 14 13 13 12 11 11 10 11 11 13 14 15 16 16 16 17 17 16 16 17 18 20 22 23 24 25 23 20 16 15 15 14 15 15 14 14 12 10 11 12 10 8 5 4 3 4 6 7 8 9 9 8 7 7 6 6 7 8 9 9 9 8 9 11 11 11 11 12 14 16 18 20 23 25 26 27 27 28 28 29 30 31
18 16 15 14 14 13 13 12 12 11 11 11 13 14 15 15 17 18 18 18 17 17 18 19 20 22 22 24 24 22 20 21 20 19 19 16 14 15 17 15 13 14 14 12 9 7 5 4 5 7 7 7 7 7 8 7 6 6 6 7 8 8 8 8 8 9 9 10 12 12 12 13 16 18 20 23 25 26 27 28 28 28 29 30 31
17 17 16 15 14 14 13 13 12 12 12 11 12 14 14 15 16 18 19 18 16 17 18 18 20 22 22 23 25 24 24 26 25 24 23 19 15 16 17 16 14 13 14 12 10 8 6 5 5 6 8 8 7 6 6 6 6 6 7 8 8 8 8 8 8 8 9 10 11 12 12 13 15 18 21 23 25 27 28 29 29 29 30 30 31
14 15 15 14 13 14 14 13 13 13 12 12 12 12 13 13 15 17 17 17 16 17 18 19 20 22 23 23 24 25 27 28 28 26 23 19 17 17 16 15 13 11 12 12 11 9 7 6 5 6 8 9 8 7 6 6 5 6 7 8 8 8 7 7 8 8 9 9 11 12 13 13 16 18 21 23 25 27 28 29 29 30 30 30 31
14 14 12 11 12 13 14 13 13 13 13 12 12 12 12 12 14 16 17 16 15 17 18 19 21 22 23 24 23 23 25 27 29 28 22 16 15 16 15 15 13 11 11 12 10 9 8 7 7 7 8 9 9 8 7 5 4 5 7 8 7 7 7 6 7 8 8 9 10 12 12 14 16 19 20 22 24 26 28 29 29 29 30 30 30
14 13 11 10 11 11 12 13 13 13 13 13 13 12 12 13 13 14 15 15 14 16 18 18 20 22 23 25 24 23 23 25 29 28 23 17 17 18 17 14 13 11 11 10 10 10 9 9 9 9 9 9 9 9 7 5 4 5 7 8 7 6 6 6 7 7 8 9 10 11 11 13 16 18 19 21 23 25 27 28 28 29 29 29 30
13 12 11 11 10 10 11 13 13 13 13 13 13 13 13 14 13 12 14 15 15 17 18 19 21 22 22 25 26 25 24 26 28 25 19 17 19 21 20 16 14 12 11 11 11 11 11 10 10 10 11 11 10 9 8 6 4 4 7 7 5 5 6 6 6 7 8 9 9 9 10 12 15 17 19 20 22 25 26 28 28 28 29 29 29
13 12 13 12 10 10 12 13 14 14 14 13 13 13 13 14 13 12 14 16 16 18 19 20 21 21 22 25 26 26 23 22 23 22 17 17 19 22 23 20 16 14 13 13 12 12 12 12 11 11 12 11 10 10 8 7 4 4 7 5 3 4 5 6 6 7 8 8 8 8 8 11 14 16 18 20 22 24 26 27 28 27 28 29 29
15 14 14 12 11 12 13 13 13 13 13 13 13 14 15 15 15 15 15 15 14 15 17 20 20 20 22 24 25 26 23 19 19 20 18 19 21 23 24 23 19 16 15 14 14 14 14 13 12 13 13 11 12 10 8 7 5 5 6 4 2 2 4 6 7 7 7 7 6 6 7 9 13 15 17 19 21 24 25 27 27 26 26 27 28
16 15 14 13 13 13 13 13 12 11 12 13 14 16 16 16 16 15 13 12 11 10 10 13 14 15 17 19 20 21 20 17 17 17 17 19 22 24 24 21 18 15 13 13 13 14 15 15 13 13 13 12 13 10 9 7 6 6 6 4 3 2 4 6 7 7 7 6 4 4 5 8 11 13 16 18 21 23 25 26 26 25 25 26 27
17 15 14 14 14 13 12 12 12 12 13 14 15 16 16 15 14 12 9 7 8 10 9 9 11 13 15 16 15 14 14 15 16 16 16 17 19 21 21 19 17 15 13 11 11 13 15 15 14 13 14 14 13 10 10 9 6 7 7 5 4 3 4 6 7 8 7 5 2 2 4 7 10 13 15 17 20 23 24 25 25 24 24 26 27
16 15 15 15 14 13 12 11 13 13 13 14 15 15 15 12 8 6 5 4 6 8 9 10 11 12 14 14 13 12 13 16 17 17 16 16 17 18 19 18 17 16 14 11 11 13 14 16 16 15 14 14 13 11 11 10 7 7 8 6 4 4 5 4 5 7 7 4 1 2 4 7 9 12 14 16 19 22 23 24 24 23 24 25 26
17 16 14 12 11 13 12 11 12 12 12 13 13 11 9 6 5 4 4 4 5 7 10 11 11 12 11 11 12 13 15 17 18 17 16 16 16 17 18 18 18 17 15 12 12 12 13 16 17 16 15 14 13 12 12 11 7 6 8 6 4 5 6 5 4 5 6 4 2 3 4 7 9 12 14 16 18 20 21 22 23 23 23 25 26
18 16 12 10 9 10 11 10 10 10 9 10 10 8 6 6 5 4 4 4 6 8 11 12 13 13 11 11 13 14 16 16 16 15 15 16 17 17 19 19 17 16 15 14 13 12 11 15 17 16 16 14 13 13 13 11 7 6 7 6 4 6 8 8 6 5 6 5 4 5 5 7 9 12 13 15 17 19 20 21 22 22 23 24 26
19 15 11 10 9 8 8 7 8 9 8 9 9 8 6 6 6 4 4 4 6 9 10 11 12 12 12 12 13 14 15 15 14 14 15 17 16 17 19 19 17 18 20 18 14 11 10 13 16 16 16 15 14 13 13 11 9 8 8 7 6 7 8 9 8 8 6 5 5 6 6 8 10 11 13 14 16 17 18 19 21 21 23 25 26
21 17 12 11 10 8 8 7 8 8 8 8 9 8 7 7 6 6 6 5 7 10 11 11 12 13 12 12 13 14 14 15 15 15 17 17 16 16 18 20 21 22 24 20 15 11 10 12 14 15 16 17 15 13 14 13 11 11 10 9 8 7 8 9 9 8 8 7 5 6 7 8 10 11 12 14 15 16 16 18 19 21 22 24 26
21 18 15 12 10 9 8 9 9 8 7 8 8 8 8 8 8 8 7 8 9 11 12 12 12 13 12 12 13 13 14 14 15 15 16 17 16 17 19 21 22 23 23 19 15 12 10 10 13 15 16 16 14 14 15 14 12 11 11 10 8 7 8 9 9 10 9 6 4 6 8 9 9 10 11 13 14 14 15 17 18 20 22 24 25
21 18 14 11 11 9 9 11 11 9 7 8 8 9 10 10 10 9 9 10 11 11 11 12 11 12 12 12 13 13 13 14 14 15 16 17 18 19 19 20 21 23 23 20 16 13 10 10 13 15 16 16 15 15 15 14 13 12 11 10 9 8 9 9 9 9 8 5 4 4 6 9 10 10 11 12 12 12 13 15 17 19 21 23 25
20 18 14 12 11 10 11 13 12 9 8 8 8 10 11 11 10 9 9 12 13 12 12 11 11 11 12 12 13 13 13 14 14 14 15 17 18 19 19 20 21 22 23 20 16 14 11 11 13 15 17 17 16 14 14 14 13 12 12 11 10 9 9 9 10 9 7 7 6 4 4 8 10 12 12 11 11 10 12 15 17 19 21 23 24
20 18 16 13 12 12 13 13 11 10 9 9 10 11 11 10 9 9 10 12 14 14 13 12 11 12 12 12 13 14 15 15 14 14 15 16 17 18 20 21 21 21 22 20 17 14 12 12 14 15 16 16 15 14 14 15 14 13 13 12 10 10 10 10 10 9 8 7 6 4 3 6 9 12 12 11 12 12 13 15 18 19 21 23 24
20 19 18 16 14 13 14 13 11 11 11 11 12 11 10 9 10 11 12 14 15 14 13 13 12 12 12 13 14 16 16 15 14 14 14 14 15 16 19 20 20 21 21 19 16 14 12 13 15 16 16 15 15 15 16 16 15 14 14 12 11 10 10 10 10 9 8 6 6 6 4 3 5 6 6 8 11 12 13 16 18 19 21 23 24
19 19 20 18 16 15 15 14 12 12 12 13 13 12 11 11 11 12 14 16 17 15 13 13 12 11 12 13 14 15 16 15 15 15 15 15 14 15 16 17 19 20 21 19 16 14 13 14 16 16 16 15 16 16 16 15 14 13 14 14 12 11 11 10 9 8 8 6 5 6 5 3 3 3 4 4 7 9 11 15 17 19 21 23 24
20 20 21 19 16 15 16 14 13 13 14 14 13 12 11 11 11 13 15 17 17 16 14 12 12 12 13 14 15 15 15 16 16 17 17 17 16 15 15 15 16 18 19 18 16 15 15 15 16 16 15 15 16 16 15 14 14 14 14 13 12 11 11 10 9 8 8 6 5 6 6 3 2 3 4 4 6 8 10 14 17 18 20 23 24
22 21 22 21 17 16 16 14 14 15 14 14 12 10 10 11 12 14 15 16 17 16 15 14 14 14 14 14 15 15 15 16 17 17 18 18 18 18 17 16 15 16 17 17 16 16 16 15 16 16 14 14 15 15 14 15 16 14 13 12 12 12 11 10 8 7 7 6 4 5 5 3 2 3 4 5 7 9 11 13 16 18 19 22 24
23 21 23 23 19 16 16 15 15 16 15 13 12 10 9 9 10 13 14 15 16 16 16 15 15 15 14 14 15 15 15 16 17 18 18 18 19 19 18 17 16 16 17 17 15 15 15 15 14 14 13 14 14 14 15 16 15 14 13 12 12 11 10 9 7 6 7 6 3 4 5 2 2 4 3 5 8 9 11 14 17 18 19 21 24
23 21 24 24 20 18 17 16 16 17 15 14 12 10 8 7 8 11 13 15 15 15 16 16 15 14 14 14 15 16 16 16 18 19 18 18 19 18 17 17 17 18 18 17 15 15 16 14 12 12 13 13 13 14 16 16 14 13 12 11 11 11 9 9 9 8 7 6 4 4 5 3 2 4 3 3 7 10 10 15 18 18 19 21 23
24 22 23 22 21 21 20 18 18 17 16 15 13 10 9 8 7 9 12 15 16 16 16 15 15 14 14 14 14 15 16 16 17 18 18 18 18 17 16 16 16 17 19 18 16 16 17 15 12 12 13 13 14 15 15 13 12 12 11 10 11 11 10 10 10 8 7 6 3 2 4 3 2 4 3 3 5 10 13 14 19 20 19 21 23
21 19 21 21 22 23 21 19 19 18 17 16 14 11 10 9 8 8 11 14 16 16 16 16 15 15 14 14 14 14 15 16 17 17 18 17 16 15 15 15 15 17 19 18 16 15 16 16 15 14 14 14 14 14 13 13 13 13 12 11 11 11 10 9 8 7 6 6 3 1 3 3 2 4 5 4 4 7 11 15 19 21 20 22 24
20 19 20 21 23 24 22 20 20 20 19 18 16 13 11 10 8 8 11 13 15 16 16 16 16 16 16 16 14 13 13 16 16 16 16 16 14 13 14 14 14 17 18 17 15 15 14 15 15 14 13 12 12 12 12 13 15 14 12 10 10 10 9 8 8 7 6 6 3 2 2 3 4 5 5 7 6 5 7 13 18 20 22 25 27
23 22 19 20 24 26 23 20 20 21 21 19 17 15 12 10 9 8 9 11 13 15 15 15 15 15 16 16 16 14 13 15 16 15 15 15 14 14 15 14 14 15 16 16 16 15 14 14 12 11 10 10 10 10 10 12 13 13 12 9 8 9 9 7 7 6 5 6 5 3 3 3 5 6 6 9 8 6 8 12 15 18 22 27 28
25 23 18 18 23 25 24 21 19 20 22 21 19 17 14 12 10 8 8 9 10 11 12 13 13 14 14 14 16 16 16 16 16 16 15 15 15 16 17 15 14 13 14 16 16 14 13 12 10 9 8 9 8 8 8 10 11 13 15 10 6 8 8 6 5 6 5 7 8 5 5 4 5 6 8 10 10 8 9 11 13 16 20 24 23
Wind_Direction
212 216 220 221 219 215 214 213 210 211 210 208 209 207 202 201 196 189 186 182 184 184 182 193 195 183 178 182 181 178 158 129 114 118 108 111 113 103 80 59 38 24 13 10 10 15 21 23 28 31 32 28 26 39 45 44 50 51 48 52 59 60 53 52 52 49 50 51 53 50 46 43 41 39 38 35 32 32 28 23 21 19 15 11 6
207 214 219 220 219 218 215 214 213 212 209 207 208 204 198 198 191 184 187 187 188 190 189 193 204 194 189 196 189 185 164 140 128 121 119 115 110 98 77 61 38 26 17 13 12 16 22 26 39 44 37 34 38 43 42 47 53 47 50 60 63 64 63 62 61 58 58 57 55 52 49 48 47 46 45 42 40 39 38 35 33 32 29 25 22
203 211 218 219 218 217 214 213 213 212 206 205 208 203 195 194 190 184 187 191 189 190 193 196 208 204 198 203 192 187 167 142 134 133 128 123 122 103 74 60 34 26 21 16 15 19 23 28 45 54 43 43 51 47 37 41 50 51 57 66 68 67 67 67 65 63 62 60 58 54 50 49 47 46 45 42 41 41 40 40 39 37 33 28 25
205 209 215 216 215 213 210 208 207 206 203 204 205 198 193 192 191 194 200 195 188 190 193 197 205 206 199 200 193 183 175 150 136 141 135 124 129 110 65 53 33 27 21 17 20 23 27 31 39 50 54 58 58 57 50 33 40 60 66 66 67 66 66 68 66 63 60 57 54 51 48 47 45 43 43 40 39 39 38 37 36 34 30 27 25
212 213 213 213 214 210 206 203 200 200 202 202 199 194 190 190 196 208 213 199 191 193 185 187 192 194 191 195 196 180 172 157 127 127 125 115 123 98 62 49 35 33 26 19 22 27 31 37 39 43 56 68 61 61 66 36 36 63 66 57 59 65 67 66 65 62 59 55 52 50 49 47 45 43 42 41 39 37 35 32 31 29 27 26 25
214 216 211 212 213 206 198 195 198 201 200 196 190 189 187 192 202 209 214 201 190 187 176 180 185 184 177 185 201 186 173 164 137 135 136 126 111 92 78 56 39 35 27 18 21 27 31 37 41 45 58 72 70 65 72 54 44 62 62 52 55 62 64 63 63 61 58 56 52 51 52 49 46 44 44 42 40 37 34 31 28 26 26 24 22
210 217 211 208 207 200 190 191 201 198 193 190 185 187 191 198 206 206 207 200 186 178 171 167 164 167 165 178 202 181 162 169 162 167 165 142 114 107 99 81 70 41 20 13 20 25 26 30 34 48 63 77 77 66 72 65 49 55 54 52 52 52 58 63 62 61 60 57 52 50 51 50 48 46 45 42 38 37 35 32 28 27 27 22 20
206 214 209 201 194 190 189 198 202 191 187 195 190 190 197 205 214 212 204 194 185 175 167 167 168 177 181 184 199 173 157 167 168 182 175 149 134 126 107 92 82 44 15 10 19 21 22 30 36 52 66 83 81 59 63 69 52 48 46 54 51 40 52 65 60 62 62 58 54 52 51 50 49 46 44 41 37 37 36 33 30 28 28 26 22
204 208 204 195 187 187 194 202 196 187 196 201 193 195 204 212 218 219 211 190 181 172 167 176 182 190 193 190 194 182 169 163 163 183 179 161 150 127 105 90 65 38 19 11 16 16 20 33 47 61 66 88 90 68 61 70 58 45 49 60 47 38 54 63 60 61 60 57 55 53 50 49 47 44 41 39 37 37 36 34 32 30 30 30 25
201 205 202 193 187 189 198 200 193 194 205 204 199 203 209 216 219 220 216 195 187 186 183 188 189 187 186 185 189 188 182 176 180 197 191 171 151 132 124 96 57 33 19 12 13 11 16 32 49 67 73 89 97 91 81 76 64 51 60 49 30 47 60 57 60 61 57 56 54 52 50 49 48 46 43 42 41 40 38 36 34 33 33 31 28
197 203 204 199 193 193 200 200 196 200 207 207 208 211 214 221 223 220 216 205 198 201 204 202 194 188 183 174 176 183 190 195 199 203 196 184 171 165 152 98 31 12 15 13 13 14 18 35 49 68 86 93 95 103 104 94 80 59 52 24 26 60 60 51 59 59 55 55 53 53 50 48 48 47 46 45 45 43 41 39 36 35 34 32 31
193 198 204 206 200 199 205 203 199 203 209 212 214 217 221 224 225 222 214 210 205 205 212 213 203 198 193 181 179 180 175 187 198 200 195 187 188 189 173 149 327 327 6 9 11 18 23 49 71 77 91 92 75 96 106 101 95 74 46 32 37 49 42 46 59 55 54 54 51 52 48 47 47 47 47 46 45 44 42 40 37 36 35 33 33
194 194 200 209 207 204 208 206 203 206 211 215 217 219 223 224 223 221 213 209 209 205 212 220 216 209 194 182 185 187 176 176 192 196 190 182 190 197 193 198 238 267 334 5 7 14 22 50 91 98 101 100 85 87 86 90 106 99 74 54 49 40 32 43 54 52 54 53 50 50 47 46 45 45 46 45 44 44 41 39 37 36 36 34 33
196 191 195 206 210 208 207 206 206 209 211 215 219 221 223 223 221 217 213 212 210 210 214 215 216 216 202 184 178 182 185 188 191 190 186 184 191 196 201 229 239 242 291 358 5 10 23 52 99 116 115 116 114 103 86 96 118 110 95 85 71 62 51 47 46 48 51 49 47 48 46 45 44 44 44 42 43 43 40 38 37 36 35 34 33
199 192 195 204 210 214 209 204 206 208 209 214 221 223 221 220 220 217 217 218 210 216 221 208 199 207 202 189 180 175 180 187 187 188 191 192 194 197 215 250 248 229 252 351 360 3 22 61 97 118 118 124 130 124 111 116 128 117 97 98 94 79 68 55 45 44 49 47 43 44 46 45 44 43 42 41 41 42 40 38 37 36 34 34 33
200 196 199 205 207 212 208 201 204 208 207 212 220 221 218 216 220 222 223 225 217 220 224 209 199 198 191 190 189 178 176 185 184 185 193 196 198 203 213 229 234 225 234 296 332 351 21 73 111 123 121 125 128 124 116 110 117 111 78 78 81 80 77 69 53 43 49 51 45 43 44 44 44 41 40 40 40 41 40 37 35 34 33 32 31
201 201 203 208 208 208 206 202 206 210 208 212 221 220 215 215 223 228 232 232 223 227 231 214 206 207 203 202 195 188 198 193 183 181 193 197 200 209 214 216 221 225 235 255 270 314 27 87 132 136 130 129 127 124 121 116 116 108 75 64 66 70 75 76 68 54 52 54 51 44 40 42 42 39 39 39 39 40 38 35 33 31 31 31 30
202 204 206 209 211 210 209 208 210 214 212 213 222 225 220 217 224 233 237 236 225 229 238 226 213 212 216 218 210 209 214 196 179 179 186 191 205 213 217 221 225 227 229 234 235 231 162 138 151 147 140 134 130 128 128 127 125 115 112 101 77 68 66 67 69 62 54 53 54 47 37 41 40 36 37 38 38 37 35 33 31 29 29 29 28
204 206 210 212 214 215 214 215 216 217 217 214 218 227 229 224 228 237 241 240 232 230 235 235 225 218 221 226 221 224 228 212 198 195 187 189 211 218 215 216 222 222 221 225 221 208 191 179 160 146 142 139 132 129 129 123 115 106 105 105 92 81 71 63 63 65 63 59 57 51 40 40 40 35 35 36 36 35 33 30 28 27 26 27 27
206 210 213 214 217 218 218 220 220 222 222 218 219 226 232 235 237 240 241 239 238 235 235 237 234 230 229 226 222 227 231 224 224 224 206 192 191 200 207 208 212 213 213 215 212 207 199 182 158 146 145 141 131 128 130 124 113 106 104 104 95 85 80 74 67 69 76 73 64 56 47 43 40 36 33 33 34 33 32 29 26 25 23 24 24
206 212 215 216 218 220 222 223 223 225 226 221 222 225 228 236 242 243 242 243 244 240 238 241 241 238 235 228 224 226 221 213 218 217 212 203 191 191 196 192 197 207 210 214 212 208 203 188 164 154 148 137 130 129 131 126 115 109 106 100 93 86 84 83 76 72 77 80 73 62 54 48 41 37 34 32 32 32 31 29 26 24 22 22 22
204 209 214 216 219 221 222 226 227 230 231 224 223 225 222 226 239 245 245 245 246 241 237 240 242 240 235 229 225 221 218 221 218 207 211 219 205 196 195 188 189 202 210 213 211 207 200 197 180 159 147 134 128 129 130 128 119 111 104 95 90 88 89 88 82 74 74 79 78 69 58 50 44 40 37 35 33 31 30 28 26 23 22 21 20
206 208 212 214 219 224 223 227 230 232 236 235 232 232 227 224 230 240 243 242 243 242 239 238 238 237 234 232 230 228 233 237 230 216 214 217 205 193 196 194 191 203 212 207 200 205 201 194 187 164 152 146 141 141 136 125 114 106 98 89 86 89 93 92 87 81 77 77 77 72 61 52 48 45 40 37 34 31 29 26 23 21 20 19 18
208 211 214 213 216 223 225 226 231 235 238 243 244 240 238 233 229 232 237 242 245 241 238 234 232 232 230 231 233 235 241 244 240 228 217 213 207 195 188 185 181 190 206 202 197 206 205 189 185 177 165 159 157 152 138 119 107 99 91 85 82 87 94 94 90 86 83 78 73 70 63 54 51 47 42 37 34 30 27 24 21 19 18 17 16
208 212 214 214 216 222 226 226 229 236 241 246 251 248 244 241 239 237 235 238 247 245 238 233 231 230 230 230 229 232 238 243 244 238 225 213 205 195 185 178 174 173 186 198 200 204 204 190 186 187 178 171 166 154 144 134 112 94 88 85 81 88 96 95 92 88 83 77 69 65 60 53 50 47 42 36 32 29 26 23 19 17 16 16 15
211 212 210 214 221 224 227 226 226 236 244 248 254 256 253 248 247 248 239 233 241 244 239 234 230 228 231 233 228 226 233 240 242 239 231 216 203 203 196 175 165 171 180 190 194 197 201 197 194 189 184 184 171 154 156 157 125 94 88 85 80 91 103 101 97 94 85 75 67 62 56 51 48 44 40 35 30 28 25 21 18 16 15 15 14
215 215 213 218 225 229 231 228 226 232 240 247 254 259 263 262 258 254 246 239 238 241 239 233 228 225 229 233 226 221 226 234 239 240 230 210 209 221 220 193 173 173 181 189 193 197 199 198 196 189 191 191 175 163 166 159 137 103 90 85 77 91 111 112 106 101 89 79 70 61 52 46 44 40 36 32 27 25 22 19 17 15 15 14 14
215 215 221 227 229 229 231 231 230 233 238 245 252 256 260 265 267 265 259 250 237 230 228 225 222 218 222 227 223 218 219 226 238 244 230 209 214 231 236 226 206 184 179 191 196 198 199 194 188 195 202 193 178 179 169 154 152 112 94 96 89 93 119 125 117 109 96 85 72 58 47 39 38 35 31 27 23 21 18 15 13 13 14 13 13
215 218 227 232 230 228 231 233 234 238 244 250 254 257 260 266 272 272 269 264 247 228 221 218 217 214 217 223 220 215 215 217 230 240 232 218 220 231 240 239 226 197 183 194 196 195 197 190 185 200 206 192 189 189 164 159 169 122 111 136 144 117 136 134 125 118 104 90 74 56 42 32 31 29 25 23 19 17 15 11 10 11 13 13 12
216 223 231 231 227 228 231 234 236 241 251 260 261 262 265 267 270 267 263 267 266 256 235 216 211 207 205 209 208 207 208 207 214 226 229 223 225 237 241 233 221 206 196 199 195 192 195 191 189 203 201 193 201 191 165 180 179 136 142 166 163 156 153 143 136 127 113 98 79 49 29 24 25 22 19 18 15 13 12 8 7 9 11 12 11
217 225 229 227 226 228 231 234 238 244 252 258 260 260 261 262 263 260 252 253 262 267 255 217 201 191 183 184 186 190 197 201 207 217 225 226 231 240 236 221 214 214 211 206 191 190 197 191 187 203 204 198 201 187 175 193 184 147 153 170 185 178 145 145 145 134 123 111 92 19 10 12 14 15 14 13 11 10 9 6 5 7 9 10 9
217 224 227 226 226 226 229 236 243 247 250 253 255 254 255 254 248 236 223 227 247 252 238 213 201 193 187 186 182 183 196 205 211 217 222 228 232 231 222 214 213 211 208 207 192 188 198 195 191 203 210 203 197 189 186 198 193 155 154 175 193 149 128 157 162 143 137 137 174 310 349 360 4 7 7 7 7 7 6 4 4 6 7 7 7
217 222 221 219 219 222 225 234 244 250 250 248 246 241 233 214 181 158 166 197 225 227 216 209 209 205 201 197 188 190 202 208 210 216 222 226 226 217 209 208 210 206 202 201 197 198 204 206 203 205 211 204 192 190 193 204 204 157 155 181 179 139 153 191 195 159 150 160 233 291 331 347 354 358 359 1 3 4 4 3 4 5 4 5 6
214 211 206 204 210 216 220 227 238 243 241 235 226 213 194 175 166 162 174 199 219 220 213 209 207 205 203 199 195 199 208 211 212 214 218 221 219 210 204 205 206 204 199 194 203 219 220 215 209 206 209 201 187 191 198 206 208 168 164 188 174 161 175 182 201 207 178 177 239 283 315 334 344 349 351 355 360 2 2 2 3 3 2 4 5
205 200 199 203 204 203 206 213 224 232 233 224 210 196 184 180 183 198 208 214 223 216 204 199 199 198 199 201 204 209 212 214 213 210 211 217 216 208 205 204 201 204 207 204 212 228 227 218 211 207 208 196 183 192 198 202 202 176 175 196 188 185 184 173 193 225 210 194 238 283 309 326 336 342 346 350 357 0 0 2 3 2 1 3 4
199 200 205 204 199 197 196 196 206 223 227 213 199 190 187 192 207 223 219 212 216 206 190 187 192 193 195 203 209 212 214 215 214 213 217 218 212 204 205 207 208 213 216 212 216 225 228 225 213 204 205 196 185 190 194 198 201 181 179 200 196 190 193 176 181 216 221 210 238 283 307 320 329 337 343 349 356 359 0 2 3 1 1 3 3
198 205 210 204 197 196 193 194 201 211 211 198 192 192 196 206 222 232 223 209 207 200 190 190 194 195 198 206 209 209 210 214 214 215 219 216 207 204 209 212 215 218 216 211 216 222 225 228 214 199 201 197 186 190 197 199 201 189 188 202 198 191 197 185 184 210 222 217 244 290 311 317 324 336 342 349 355 358 1 4 3 2 3 3 2
199 205 207 201 196 190 186 196 204 200 189 188 192 197 205 217 226 233 228 210 203 199 194 194 199 205 208 209 211 210 208 208 209 212 214 211 208 209 212 213 215 216 212 211 218 223 220 222 213 200 198 196 189 193 201 200 196 193 195 199 198 194 197 192 193 206 210 205 223 264 297 307 323 338 339 345 356 359 3 5 4 4 4 3 2
199 203 204 198 192 184 184 195 200 189 178 184 190 197 210 220 223 227 223 206 199 201 199 195 199 208 214 212 209 205 199 196 199 204 206 206 206 208 210 212 214 214 211 212 219 223 220 215 208 200 199 200 196 195 200 199 194 194 197 198 199 198 197 195 198 201 201 208 225 247 280 300 321 336 338 346 357 1 5 7 7 6 5 3 2
197 205 211 202 185 179 186 194 190 180 179 184 187 195 208 216 214 211 205 196 195 199 199 196 197 205 211 209 202 197 192 188 190 195 198 200 202 206 207 209 212 212 210 214 219 221 219 213 204 197 197 201 199 195 198 199 196 198 201 200 200 200 197 196 198 200 201 210 227 247 289 315 323 334 343 347 349 357 7 8 8 7 5 4 3
195 205 214 206 187 181 188 190 185 182 185 186 190 197 205 209 209 204 195 190 192 195 197 196 195 200 207 203 197 194 190 186 186 187 189 191 197 204 206 206 209 210 210 215 219 215 210 206 197 193 195 198 197 198 205 204 199 199 201 200 201 201 197 197 200 201 202 205 215 222 239 290 302 313 327 328 336 353 5 5 6 7 6 6 4
196 205 210 204 191 187 190 188 185 186 186 187 195 203 206 208 211 207 199 195 193 195 200 198 193 198 206 203 198 197 193 189 188 187 184 183 188 197 203 205 208 211 214 218 217 210 204 200 196 195 197 197 200 206 213 209 199 198 202 200 198 197 195 195 200 205 207 208 214 219 228 256 276 265 252 283 327 348 356 359 3 6 6 6 5
197 205 205 198 188 185 188 186 184 184 184 188 197 203 206 209 211 207 204 201 200 204 205 196 191 200 206 204 200 198 197 194 193 192 187 183 183 186 189 197 207 213 218 221 218 212 205 198 199 201 199 199 208 213 213 205 197 199 202 199 196 196 197 197 200 207 212 208 207 218 229 254 294 271 242 260 314 338 347 354 0 3 5 6 5
200 206 203 195 186 183 184 183 181 181 181 188 195 198 201 206 208 207 205 203 204 208 206 197 196 201 203 201 199 199 200 200 199 198 194 189 186 184 183 188 197 207 214 218 220 219 211 201 204 207 201 203 213 214 208 204 202 202 200 197 198 198 199 204 203 206 215 213 208 222 229 249 306 286 256 270 306 337 352 355 358 1 2 3 4
205 206 201 195 187 183 184 181 180 179 181 187 189 187 189 197 203 205 205 204 202 204 205 203 202 202 199 197 199 201 201 203 205 203 198 195 193 192 190 190 194 202 207 206 209 214 210 203 206 209 205 207 213 212 211 211 209 202 197 196 198 196 200 208 200 197 221 225 211 231 234 235 307 297 275 274 295 328 1 6 1 359 360 1 2
204 201 199 194 186 183 183 180 179 179 182 186 183 179 178 184 195 201 203 203 202 201 204 205 205 204 201 199 201 205 205 207 209 206 201 200 200 198 197 197 198 201 200 194 193 198 200 201 205 210 212 213 211 211 219 222 212 199 194 194 196 193 194 202 197 199 228 232 207 228 242 239 318 314 298 285 289 301 337 5 5 358 358 0 360
200 199 197 191 185 185 184 180 180 181 183 185 181 175 172 170 178 193 199 202 202 203 205 205 204 205 205 203 204 208 209 210 213 211 205 202 202 201 200 201 201 199 195 193 192 194 197 197 198 207 215 216 212 215 223 222 204 189 187 188 190 190 193 203 207 209 224 228 207 227 254 254 330 335 313 311 301 290 300 335 358 359 356 356 359
192 192 191 187 186 187 185 184 184 184 186 187 181 172 167 164 167 180 193 199 201 203 205 206 204 205 206 207 207 210 213 212 212 213 210 204 203 206 205 204 202 199 199 200 198 197 201 202 201 206 212 213 215 218 217 205 193 188 187 187 187 189 196 205 209 206 210 221 230 289 277 267 316 341 324 319 319 299 298 316 341 354 355 354 357
188 186 185 186 188 188 187 189 190 189 191 190 183 176 172 169 169 176 187 197 202 204 205 205 203 205 207 207 206 209 216 216 210 209 211 207 203 208 213 211 207 204 205 207 203 201 207 210 209 209 211 211 216 220 212 204 201 193 185 188 193 194 203 214 212 208 209 212 230 329 303 276 304 326 329 325 316 305 309 313 322 337 350 353 355
193 188 183 184 188 190 192 193 194 195 196 193 188 185 184 181 180 180 184 196 205 208 209 209 208 213 216 215 211 208 215 219 212 206 209 207 203 209 216 218 217 214 213 213 211 208 208 211 210 208 211 214 216 215 208 207 209 194 176 183 205 203 210 229 227 219 215 212 232 303 329 302 311 323 331 335 328 308 311 313 309 319 338 348 351
192 185 181 182 186 189 193 195 196 196 196 195 193 193 194 189 186 178 176 194 208 210 213 216 217 220 224 225 223 218 220 221 214 207 206 204 205 213 217 217 221 225 225 221 219 215 212 212 211 208 215 219 214 211 206 204 208 194 176 175 202 213 220 240 231 222 226 217 225 267 321 322 319 331 331 333 335 326 323 324 313 308 324 340 345